TimePDT,TemperatureF,Dew PointF,Humidity,Sea Level PressureIn,VisibilityMPH,Wind Direction,Wind SpeedMPH,Gust SpeedMPH,PrecipitationIn,Events,Conditions,WindDirDegrees,DateUTC
12:53 AM,64.9,48.0,54,30.03,10.0,NW,18.4,28.8,N/A,,Clear,310,2013-06-08 07:53:00
1:53 AM,62.1,48.9,62,30.02,10.0,NW,21.9,27.6,N/A,,Clear,320,2013-06-08 08:53:00
2:53 AM,61.0,48.0,62,30.03,10.0,NW,15.0,23.0,N/A,,Clear,310,2013-06-08 09:53:00
3:53 AM,61.0,45.0,56,30.03,10.0,NW,10.4,16.1,N/A,,Clear,320,2013-06-08 10:53:00
4:53 AM,60.1,44.1,55,30.05,10.0,SW,5.8,-,N/A,,Clear,230,2013-06-08 11:53:00
5:53 AM,57.0,44.1,62,30.05,10.0,Calm,Calm,-,N/A,,Clear,0,2013-06-08 12:53:00
6:53 AM,60.1,44.1,55,30.07,10.0,Calm,Calm,-,N/A,,Clear,0,2013-06-08 13:53:00
7:53 AM,64.0,46.0,52,30.06,10.0,NNW,6.9,-,N/A,,Clear,330,2013-06-08 14:53:00
8:53 AM,66.0,45.0,47,30.05,10.0,NW,4.6,-,N/A,,Clear,310,2013-06-08 15:53:00
9:53 AM,70.0,44.1,39,30.04,10.0,NNW,13.8,-,N/A,,Clear,340,2013-06-08 16:53:00
10:53 AM,73.9,41.0,30,30.01,10.0,NNW,13.8,18.4,N/A,,Clear,340,2013-06-08 17:53:00
11:53 AM,77.0,37.9,24,30.00,10.0,NNW,13.8,-,N/A,,Clear,330,2013-06-08 18:53:00
12:53 PM,80.1,37.9,22,29.98,10.0,NNW,25.3,32.2,N/A,,Clear,340,2013-06-08 19:53:00
1:53 PM,82.9,39.9,22,29.97,10.0,NNW,24.2,28.8,N/A,,Clear,340,2013-06-08 20:53:00
2:53 PM,88.0,33.1,14,29.95,10.0,WNW,21.9,27.6,N/A,,Clear,300,2013-06-08 21:53:00
3:53 PM,86.0,41.0,20,29.95,10.0,WNW,18.4,26.5,N/A,,Clear,300,2013-06-08 22:53:00
4:53 PM,86.0,42.1,21,29.93,10.0,WNW,26.5,33.4,N/A,,Clear,290,2013-06-08 23:53:00
5:53 PM,84.0,44.1,25,29.93,10.0,WNW,26.5,34.5,N/A,,Clear,300,2013-06-09 00:53:00
6:53 PM,81.0,44.1,27,29.94,10.0,WNW,23.0,33.4,N/A,,Clear,300,2013-06-09 01:53:00
7:53 PM,78.1,45.0,31,29.96,10.0,WNW,19.6,24.2,N/A,,Clear,290,2013-06-09 02:53:00
8:53 PM,73.0,46.0,38,29.96,10.0,WNW,11.5,-,N/A,,Clear,300,2013-06-09 03:53:00
9:53 PM,73.0,45.0,37,29.97,10.0,WNW,15.0,23.0,N/A,,Clear,290,2013-06-09 04:53:00
10:53 PM,71.1,44.1,38,29.97,10.0,West,15.0,21.9,N/A,,Clear,280,2013-06-09 05:53:00
11:53 PM,69.1,48.0,47,29.97,10.0,WNW,6.9,-,N/A,,Clear,300,2013-06-09 06:53:00